Date String (YYYY-MM-DD hh:mm:ss) UTC,Instrument flags,Ambient pressure (hPa),Sample flow (lpm),Bypass flow (lpm),Sample temperature (°C),Ambient temperature (°C),ASC tube jacket temperature (°C),LED temperature (°C),Box temperature (°C),Sample RH (%),Span deviation,Mass concentration (μg/m³),Mass concentration (μg/m³),Mass concentration (μg/m³)
DateTimeUTC,F1_M11,P_M11,Q1_M11,Q2_M11,T1_M11,T2_M11,T3_M11,T4_M11,T5_M11,U1_M11,ZSPAN_M11,X2_M11,X0_M11,X1_M11
2023-02-24 05:00:00,,0826.5,5.01,0.00,22.4,20.5,00.0,31.2,23.8,04.6,0000.0,0004.06,0008.08,0003.63
2023-02-24 05:01:00,,0826.4,5.00,0.00,22.3,20.7,00.0,31.2,23.9,04.6,0000.0,0004.05,0007.85,0003.64
2023-02-24 05:02:00,,0826.5,4.96,0.00,22.4,21.7,00.0,31.2,24.1,04.6,0000.0,0004.04,0007.81,0003.64
2023-02-24 05:03:00,,0826.5,4.94,0.00,22.5,22.6,00.0,31.2,24.4,04.6,0000.0,0004.02,0007.72,0003.64
2023-02-24 05:04:00,,0826.5,4.98,0.00,22.6,23.0,00.0,31.2,24.5,04.6,0000.0,0004.01,0007.69,0003.64
2023-02-24 05:05:00,,0826.5,4.97,0.00,22.6,22.5,00.0,31.2,24.4,04.6,0000.0,0004.00,0007.57,0003.64
2023-02-24 05:06:00,,0826.4,4.99,0.00,22.6,22.0,00.0,31.3,24.3,04.6,0000.0,0003.97,0007.46,0003.64
2023-02-24 05:07:00,,0826.3,5.00,0.00,22.6,21.5,00.0,31.3,24.1,04.6,0000.0,0003.98,0007.47,0003.66
2023-02-24 05:08:00,,0826.4,5.00,0.00,22.5,21.2,00.0,31.3,24.0,04.6,0000.0,0004.01,0007.16,0003.67
2023-02-24 05:09:00,,0826.4,5.02,0.00,22.5,20.9,00.0,31.2,24.0,04.6,0000.0,0003.99,0006.94,0003.66
2023-02-24 05:10:00,,0826.5,5.00,0.00,22.4,20.7,00.0,31.2,23.9,04.6,0000.0,0003.97,0006.15,0003.65
2023-02-24 05:11:00,,0826.5,5.00,0.00,22.3,20.5,00.0,31.2,23.8,04.6,0000.0,0003.97,0006.26,0003.65
2023-02-24 05:12:00,,0826.5,5.02,0.00,22.3,21.0,00.0,31.2,23.9,04.6,0000.0,0003.97,0006.42,0003.64
2023-02-24 05:13:00,,0826.5,4.99,0.00,22.4,22.0,00.0,31.1,24.2,04.6,0000.0,0004.00,0006.78,0003.63
2023-02-24 05:14:00,,0826.5,4.95,0.00,22.5,22.8,00.0,31.2,24.4,04.6,0000.0,0004.01,0007.57,0003.64
2023-02-24 05:15:00,,0826.4,4.95,0.00,22.6,22.9,00.0,31.2,24.5,04.6,0000.0,0004.03,0007.64,0003.64
2023-02-24 05:16:00,,0826.5,4.98,0.00,22.6,22.3,00.0,31.2,24.3,04.6,0000.0,0004.04,0007.79,0003.65
2023-02-24 05:17:00,,0826.5,5.00,0.00,22.6,21.8,00.0,31.2,24.2,04.6,0000.0,0004.05,0008.08,0003.65
2023-02-24 05:18:00,,0826.5,5.00,0.00,22.5,21.4,00.0,31.2,24.1,04.6,0000.0,0004.04,0008.06,0003.66
2023-02-24 05:19:00,,0826.5,5.00,0.00,22.5,21.1,00.0,31.2,24.0,04.6,0000.0,0004.04,0008.06,0003.64
2023-02-24 05:20:00,,0826.5,5.02,0.00,22.4,20.8,00.0,31.2,23.8,04.6,0000.0,0004.03,0008.08,0003.63
2023-02-24 05:21:00,,0826.5,5.01,0.00,22.4,20.6,00.0,31.2,23.8,04.6,0000.0,0003.99,0007.99,0003.60
2023-02-24 05:22:00,,0826.5,5.01,0.00,22.3,20.5,00.0,31.2,23.9,04.6,0000.0,0003.95,0007.80,0003.57
2023-02-24 05:23:00,,0826.5,5.00,0.00,22.4,21.4,00.0,31.1,24.1,04.6,0000.0,0003.89,0007.63,0003.55
2023-02-24 05:24:00,,0826.5,5.00,0.00,22.5,22.4,00.0,31.1,24.3,04.6,0000.0,0003.85,0008.20,0003.53
2023-02-24 05:25:00,,0826.5,4.93,0.00,22.6,23.1,00.0,31.2,24.5,04.6,0000.0,0003.82,0007.81,0003.49
2023-02-24 05:26:00,,0826.4,5.00,0.00,22.6,22.8,00.0,31.2,24.5,04.5,0000.0,0003.77,0007.76,0003.46
2023-02-24 05:27:00,,0826.4,5.00,0.00,22.6,22.2,00.0,31.2,24.3,04.6,0000.0,0003.74,0007.61,0003.44
2023-02-24 05:28:00,,0826.5,4.99,0.00,22.6,21.7,00.0,31.2,24.2,04.6,0000.0,0003.72,0007.15,0003.44
2023-02-24 05:29:00,,0826.5,5.02,0.00,22.5,21.3,00.0,31.2,24.1,04.6,0000.0,0003.72,0007.23,0003.42
2023-02-24 05:30:00,,0826.5,5.01,0.00,22.5,21.0,00.0,31.2,24.0,04.6,0000.0,0003.67,0007.03,0003.42
2023-02-24 05:31:00,,0826.5,5.01,0.00,22.4,20.7,00.0,31.2,23.9,04.6,0000.0,0003.68,0007.21,0003.42
2023-02-24 05:32:00,,0826.5,5.00,0.00,22.3,20.5,00.0,31.2,23.8,04.6,0000.0,0003.69,0007.41,0003.44
2023-02-24 05:33:00,,0826.5,5.02,0.00,22.3,20.8,00.0,31.2,23.9,04.6,0000.0,0003.72,0007.47,0003.45
2023-02-24 05:34:00,,0826.5,4.97,0.00,22.4,21.8,00.0,31.1,24.2,04.6,0000.0,0003.74,0007.50,0003.48
2023-02-24 05:35:00,,0826.5,5.03,0.00,22.5,22.7,00.0,31.1,24.4,04.6,0000.0,0003.78,0006.64,0003.50
2023-02-24 05:36:00,,0826.5,5.02,0.00,22.6,23.1,00.0,31.2,24.5,04.5,0000.0,0003.81,0006.05,0003.53
2023-02-24 05:37:00,,0826.5,4.99,0.00,22.6,22.6,00.0,31.2,24.4,04.5,0000.0,0003.87,0006.13,0003.59
2023-02-24 05:38:00,,0826.5,4.98,0.00,22.6,22.0,00.0,31.2,24.3,04.5,0000.0,0003.92,0006.29,0003.63
2023-02-24 05:39:00,,0826.5,4.99,0.00,22.6,21.5,00.0,31.2,24.1,04.5,0000.0,0003.93,0006.39,0003.63
2023-02-24 05:40:00,,0826.5,5.00,0.00,22.5,21.1,00.0,31.2,24.0,04.5,0000.0,0003.94,0006.76,0003.63
2023-02-24 05:41:00,,0826.5,5.01,0.00,22.4,20.8,00.0,31.2,24.0,04.5,0000.0,0003.97,0006.90,0003.64
2023-02-24 05:42:00,,0826.6,5.00,0.00,22.4,20.6,00.0,31.2,23.9,04.6,0000.0,0003.99,0006.74,0003.64
2023-02-24 05:43:00,,0826.5,4.99,0.00,22.3,20.6,00.0,31.2,23.9,04.6,0000.0,0003.99,0006.52,0003.65
2023-02-24 05:44:00,,0826.6,5.03,0.00,22.4,21.6,00.0,31.1,24.1,04.6,0000.0,0004.00,0006.48,0003.66
2023-02-24 05:45:00,,0826.6,5.01,0.00,22.5,22.6,00.0,31.1,24.4,04.5,0000.0,0004.04,0006.54,0003.68
2023-02-24 05:46:00,,0826.5,4.98,0.00,22.6,23.2,00.0,31.2,24.6,04.5,0000.0,0004.10,0006.71,0003.73
2023-02-24 05:47:00,,0826.5,4.95,0.00,22.7,23.2,00.0,31.2,24.5,04.5,0000.0,0004.15,0006.86,0003.77
2023-02-24 05:48:00,,0826.5,5.01,0.00,22.7,22.5,00.0,31.2,24.4,04.5,0000.0,0004.13,0006.76,0003.76
2023-02-24 05:49:00,,0826.5,5.00,0.00,22.6,21.8,00.0,31.3,24.3,04.5,0000.0,0004.18,0006.89,0003.77
2023-02-24 05:50:00,,0826.5,4.96,0.00,22.6,21.3,00.0,31.3,24.1,04.5,0000.0,0004.20,0006.96,0003.78
2023-02-24 05:51:00,,0826.4,5.00,0.00,22.5,20.8,00.0,31.2,24.0,04.6,0000.0,0004.19,0006.68,0003.78
2023-02-24 05:52:00,,0826.4,5.00,0.00,22.4,20.5,00.0,31.2,23.9,04.6,0000.0,0004.22,0006.93,0003.78
2023-02-24 05:53:00,,0826.5,4.98,0.00,22.4,20.4,00.0,31.2,23.8,04.6,0000.0,0004.25,0007.13,0003.82
2023-02-24 05:54:00,,0826.5,4.99,0.00,22.4,21.3,00.0,31.2,24.0,04.5,0000.0,0004.30,0007.28,0003.85
2023-02-24 05:55:00,,0826.4,5.03,0.00,22.5,22.3,00.0,31.2,24.3,04.5,0000.0,0004.33,0007.35,0003.88
2023-02-24 05:56:00,,0826.5,5.01,0.00,22.6,23.1,00.0,31.2,24.5,04.4,0000.0,0004.35,0007.92,0003.91
2023-02-24 05:57:00,,0826.4,5.05,0.00,22.7,23.2,00.0,31.2,24.5,04.4,0000.0,0004.33,0008.60,0003.90
2023-02-24 05:58:00,,0826.4,4.99,0.00,22.7,22.5,00.0,31.3,24.4,04.4,0000.0,0004.31,0008.54,0003.89
2023-02-24 05:59:00,,0826.5,5.00,0.00,22.6,21.9,00.0,31.3,24.2,04.4,0000.0,0004.35,0008.64,0003.91
